Regional Weather Roundup
Issued by NWS

Home | Current Version | Previous Version | Text Only | Print | Product List | Glossary Off
Versions: 1 2 3 4 5 6 7 8 9 10 11 12 13 14 15 16 17 18 19 20 21 22 23 24 25 26 27 28 29 30 31 32 33 34 35 36 37 38 39 40 41 42 43 44 45 46 47 48 49 50

000
ASUS43 KMPX 260510
RWRMN
WEATHER ROUNDUP FOR MINNESOTA
NATIONAL WEATHER SERVICE TWIN CITIES/CHANHASSEN MN
1200 AM CDT SUN APR 26 2015


NOTE: "FAIR" INDICATES FEW OR NO CLOUDS BELOW 12,000 FEET WITH NO
SIGNIFICANT WEATHER AND/OR OBSTRUCTIONS TO VISIBILITY. N/A MEANS
CURRENT SKY AND/OR WEATHER CONDITIONS ARE NOT AVAILABLE.

MNZ060>063-068>070-260600-
   Twin Cities Metro

CITY           SKY/WX    TMP DP  RH WIND       PRES   REMARKS
TWIN CITIES    CLEAR     48  25  40 NE9       29.98R
ST PAUL        CLEAR     47  24  40 N6        29.99R
CRYSTAL        CLEAR     46  25  43 N8        29.98R
BLAINE         CLEAR     45  27  49 N8        29.99R
LAKEVILLE      CLEAR     45  30  57 NE6       29.96R
EDEN PRAIRIE   CLEAR     48  27  44 N7        29.96R
SOUTH ST PAUL  CLEAR     49  25  38 NE8       29.97R
LAKE ELMO      FAIR      45  27  49 N5        29.99R
$$
MNZ001>005-007-008-013>017-022>024-027-028-260600-
   Northwest Minnesota

CITY           SKY/WX    TMP DP  RH WIND       PRES   REMARKS
BEMIDJI        CLEAR     32  27  79 CALM      30.02R
HALLOCK        CLEAR     45  30  57 E9        29.99S
ROSEAU         CLEAR     39  30  70 E3        30.03S
WARROAD        CLEAR     37  32  81 CALM      30.05R
THIEF RVR FALL CLEAR     46  28  49 E8        30.01R
CROOKSTON      CLEAR     43  30  61 SE8       30.00S
FOSSTON        CLEAR     39  27  60 CALM      30.01S
DETROIT LAKES  CLEAR     46  30  53 SE3       30.00F
MOORHEAD       CLEAR     45  28  53 SE6       29.99S
PARK RAPIDS    CLEAR     43  26  51 SE8       30.01R
MAHNOMEN       FAIR      43  29  58 SE6       29.99S
$$
MNZ006-009>011-018-025>026-260600-
   North Central Minnesota

CITY           SKY/WX    TMP DP  RH WIND       PRES   REMARKS
BAUDETTE       CLEAR     41  29  62 E5        30.04R
FLAG ISLAND    CLEAR     48  28  46 E5        30.04R
INTL FALLS     CLEAR     41  25  53 NE6       30.05R
WASKISH        CLEAR     41  28  60 CALM      30.04R
BIG FORK       CLEAR     39  18  41 CALM      30.05R
LONGVILLE      CLEAR     37  19  48 CALM      30.04R
GRAND RAPIDS   CLEAR     36  10  35 SE3       30.05R
CRANE LAKE     CLEAR     27  25  93 CALM      30.08R
ORR            CLEAR     36  14  41 CALM      30.04R
COOK           CLEAR     30  18  59 CALM      30.07R
WALKER         FAIR      42  31  66 CALM      30.03R
$$
MNZ012-019>021-037-260600-
   Northeast Minnesota

CITY           SKY/WX    TMP DP  RH WIND       PRES   REMARKS
DULUTH         CLEAR     34  15  46 E3        30.04R
ELY            CLEAR     28  18  64 CALM      30.06R
HIBBING        CLEAR     28  15  58 CALM      30.05R
EVELETH        CLEAR     30  19  64 NE3       30.06R
DULUTH HARBOR  CLEAR     37  28  70 NE8       30.07S
TWO HARBORS    CLEAR     36  18  48 N7        30.04R
SILVER BAY     CLEAR     27  18  69 CALM      30.05R
GRAND MARAIS     N/A     28  21  75 CALM      30.07S
G MARAIS ARPRT CLEAR     27  16  63 N7        30.05R WCI  19
$$
MNZ029>031-032-039>041-046>048-054>057-064-260600-
   West Central Minnesota

CITY           SKY/WX    TMP DP  RH WIND       PRES   REMARKS
FERGUS FALLS   CLEAR     46  27  46 E3        30.01R
WHEATON        CLEAR     37  36  93 E5        30.00R
MORRIS         FAIR      46  34  61 E10       29.97S
ALEXANDRIA     CLEAR     43  29  57 E7        30.00R
ELBOW LAKE     FAIR      46  33  61 E8        29.99R
WADENA         CLEAR     39  28  65 E5        30.00S
GLENWOOD       CLEAR     39  30  70 E8        30.00R
APPLETON       CLEAR     43  36  75 E8        29.97R
BENSON         CLEAR     43  30  61 E6        29.98R
ORTONVILLE     PTCLDY    48  37  66 NE9       29.97R
MADISON        CLEAR     45  36  70 E6        29.97R
WILLMAR        FAIR      46  34  61 E10       29.99R
$$
MNZ033>034-036-042>043-049>051-058-059-260600-
   Central Minnesota

CITY           SKY/WX    TMP DP  RH WIND       PRES   REMARKS
ST CLOUD       CLEAR     41  18  39 NE8       30.01R
SAUK CENTRE    FAIR      42  26  53 E9        30.00R
PAYNESVILLE    CLEAR     39  30  72 N5        30.00S
AITKIN         CLEAR     36   5  27 NE6       30.02S
PINE RIVER     CLEAR     39  18  41 E5        30.06R
BRAINERD       CLEAR     39   8  27 E6        30.03R
STAPLES        CLEAR     43  14  31 E5        30.02R
LONG PRAIRIE   FAIR      39  27  60 NE6       30.01R
LITTLE FALLS   CLEAR     41  14  33 E5        30.02R
LITCHFIELD     CLEAR     45  30  57 NE3       30.00R
BUFFALO        FAIR      43  25  49 N8        30.00R
MAPLE LAKE     CLEAR     42  26  52 NE6       30.01R
$$
MNZ037-044-045-052-053-260600-
   East Central Minnesota

CITY           SKY/WX    TMP DP  RH WIND       PRES   REMARKS
PRINCETON      CLEAR     39  18  41 NE9       30.02R
MORA           CLEAR     34  16  47 NE3       30.05R
CAMBRIDGE      CLEAR     41  25  52 N7        30.00R
RUSH CITY      PTCLDY    36  21  56 N6        30.03R
MOOSE LAKE     CLEAR     32  21  64 CALM      30.03R
HINCKLEY       FAIR      34  23  64 NE6       30.03R WCI  29
CLOQUET        CLEAR     32  16  51 NE3       30.04R
MCGREGOR       CLEAR     34  14  44 E6        30.04S WCI  29
$$
MNZ071>073-080-081-089-090-097-098-260600-
   Southwest Minnesota

CITY           SKY/WX    TMP DP  RH WIND       PRES   REMARKS
MONTEVIDEO     CLEAR     43  36  75 E10       29.98S
GRANITE FALLS  CLEAR     44  35  70 CALM      29.98R
CANBY          PTCLDY    46  40  82 CALM      29.98R
MARSHALL       CLEAR     45  34  65 SW3       29.95S
REDWOOD FALLS  CLEAR     46  36  68 CALM      29.97R
OLIVIA         CLEAR     45  30  57 E5        29.97R
PIPESTONE      MOCLDY    45  37  76 E3        29.94R
WINDOM         PTCLDY    36  30  80 CALM      29.95S
WORTHINGTON    PTCLDY    39  34  81 NE3       29.96R
JACKSON        PTCLDY    41  34  75 CALM      29.95S
TRACY          PTCLDY    44  36  74 S3        29.96R
SLAYTON        PTCLDY    40  35  82 CALM      29.96R
$$
MNZ065>067-074>077-082>085-091>093-260600-
   South Central Minnesota

CITY           SKY/WX    TMP DP  RH WIND       PRES   REMARKS
MANKATO        CLEAR     43  34  70 N15       29.96R
NEW ULM        CLEAR     45  36  70 CALM      29.97R
ST JAMES       FAIR      39  34  81 CALM      29.96R
FAIRMONT       CLEAR     39  34  81 CALM      29.94R
GLENCOE        CLEAR     46  33  59 N6        29.97R
FARIBAULT      CLEAR     36  32  87 N5        29.96R
OWATONNA       CLEAR     37  34  87 CALM      29.95R
WASECA         CLEAR     37  34  87 NW5       29.96R
ALBERT LEA     CLEAR     37  37 100 CALM      29.94R
$$
MNZ078>079-086>088-094>096-260600-
   Southeast Minnesota

CITY           SKY/WX    TMP DP  RH WIND       PRES   REMARKS
ROCHESTER      CLEAR     46  22  38 E3        29.94R
RED WING       CLEAR     43  28  56 CALM      29.95R
STANTON        CLEAR     37  30  75 CALM      29.95R
DODGE CENTER   CLEAR     41  34  75 CALM      29.94R
WINONA         CLEAR     37  32  81 NW3       29.96R
AUSTIN         CLEAR     37  36  93 CALM      29.94R
PRESTON        CLEAR     45  23  42 CALM      29.94R
$$
ABBREVIATIONS USED IN REMARKS
   TC - TEMPERATURES IN CELSIUS
  WCI - WIND CHILL INDEX
   HX - HEAT INDEX
  VSB - VISIBILITY
$$



USA.gov is the U.S. government's official web portal to all federal, state and local government web resources and services.